This demonstration page uses our WeatherBlox Daily Observations layout. Learn more.

Left ArrowRight Arrow

40.92501, -98.34201

Hourly Observations for September 11, 2022

Temp ( °F °C ) Dew Point ( °F °C ) Humidity (%) Winds ( mph kmh ) Pressure ( in mb ) Visibility ( mi km ) Precip ( " mm )
12:53 am 00:53 Clear 52 11.1 47 8.3 83 83 W 9 15 30.30 1026 10 16 0.00 0.00
1:53 am 01:53 Clear 51 10.6 46 7.8 83 83 W 8 13 30.29 1026 10 16 0.00 0.00
2:53 am 02:53 Clear 51 10.6 46 7.8 83 83 W 8 13 30.28 1025 10 16 0.00 0.00
3:53 am 03:53 Clear 49 9.4 45 7.2 86 86 WSW 5 7 30.27 1025 10 16 0.00 0.00
4:53 am 04:53 Clear 49 9.4 45 7.2 86 86 W 6 9 30.27 1025 10 16 0.00 0.00
5:53 am 05:53 Clear 48 8.9 45 7.2 89 89 W 6 9 30.27 1025 10 16 0.00 0.00
6:53 am 06:53 Clear 48 8.9 44 6.7 86 86 W 5 7 30.28 1025 10 16 0.00 0.00
7:53 am 07:53 Sunny 49 9.4 45 7.2 86 86 W 6 9 30.30 1026 9 14 0.00 0.00
8:53 am 08:53 Sunny 54 12.2 48 8.9 80 80 WNW 6 9 30.30 1026 10 16 0.00 0.00
9:53 am 09:53 Sunny 60 15.6 48 8.9 64 64 WNW 6 9 30.30 1026 10 16 0.00 0.00
10:53 am 10:53 Sunny 67 19.4 50 10 55 55 W 5 7 30.30 1026 10 16 0.00 0.00
11:53 am 11:53 Sunny 72 22.2 47 8.3 41 41 WNW 5 7 30.29 1026 10 16 0.00 0.00
12:53 pm 12:53 Sunny 74 23.3 42 5.6 32 32 W 7 11 30.27 1025 10 16 0.00 0.00
1:53 pm 13:53 Partly Cloudy 76 24.4 39 3.9 26 26 W 8 13 30.24 1024 10 16 0.00 0.00
2:53 pm 14:53 Sunny 77 25 40 4.4 26 26 W 7 11 30.21 1023 10 16 0.00 0.00
3:53 pm 15:53 Sunny 78 25.6 40 4.4 25 25 VRB 6 9 30.18 1022 10 16 0.00 0.00
4:53 pm 16:53 Mostly Sunny 78 25.6 42 5.6 28 28 SW 7 11 30.16 1022 10 16 0.00 0.00
5:53 pm 17:53 Mostly Sunny 78 25.6 43 6.1 29 29 W 3 6 30.16 1021 10 16 0.00 0.00
6:53 pm 18:53 Mostly Sunny 76 24.4 43 6.1 31 31 VRB 5 7 30.14 1021 10 16 0.00 0.00
7:53 pm 19:53 Clear 68 20 48 8.9 49 49 SSW 6 9 30.14 1021 10 16 0.00 0.00
8:53 pm 20:53 Clear 65 18.3 49 9.4 56 56 SSW 3 6 30.14 1021 10 16 0.00 0.00
9:53 pm 21:53 Clear 61 16.1 50 10 67 67 S 7 11 30.14 1021 10 16 0.00 0.00
10:53 pm 22:53 Clear 59 15 49 9.4 69 69 SSW 8 13 30.13 1020 10 16 0.00 0.00
11:53 pm 23:53 Clear 58 14.4 49 9.4 72 72 SSW 5 7 30.11 1020 10 16 0.00 0.00

Powered by AerisWeather